Hourly Weather Bolshie Kibya-Kozi

Today, 20 June, Sunday

Time Temperature Precipitation Wind Pressure Humidity
00:00 +19°C° 0 mm 5 mps 754 mmHg 86%
01:00 +19°C° 0 mm 4 mps 754 mmHg 88%
02:00 +18°C° 0 mm 4 mps 755 mmHg 89%
03:00 +18°C° 0 mm 4 mps 755 mmHg 91%
04:00 +19°C° 0 mm 4 mps 755 mmHg 86%
05:00 +20°C° 0 mm 3 mps 755 mmHg 82%
06:00 +22°C° 0 mm 3 mps 755 mmHg 78%
07:00 +24°C° 0 mm 3 mps 755 mmHg 73%
08:00 +26°C° 0 mm 3 mps 755 mmHg 69%
09:00 +27°C° 0 mm 3 mps 755 mmHg 65%
10:00 +28°C° 0 mm 3 mps 756 mmHg 63%
11:00 +28°C° 0 mm 3 mps 756 mmHg 60%
12:00 +29°C° 0 mm 3 mps 756 mmHg 58%
13:00 +29°C° 0.1 mm 3 mps 756 mmHg 59%
14:00 +29°C° 0.1 mm 3 mps 756 mmHg 59%
15:00 +29°C° 0 mm 3 mps 756 mmHg 59%
16:00 +28°C° 0 mm 3 mps 755 mmHg 63%
17:00 +28°C° 0 mm 3 mps 755 mmHg 67%
18:00 +27°C° 0 mm 3 mps 755 mmHg 72%
19:00 +25°C° 0 mm 2 mps 755 mmHg 74%
20:00 +24°C° 0 mm 2 mps 756 mmHg 75%
21:00 +21°C° 0 mm 2 mps 756 mmHg 77%
22:00 +21°C° 0.1 mm 2 mps 756 mmHg 77%
23:00 +21°C° 0.1 mm 2 mps 756 mmHg 76%

Tomorrow, 21 June, Monday

Time Temperature Precipitation Wind Pressure Humidity
00:00 +20°C° 0.1 mm 3 mps 756 mmHg 75%
01:00 +20°C° 0.2 mm 3 mps 756 mmHg 77%
02:00 +20°C° 0.2 mm 3 mps 756 mmHg 80%
03:00 +19°C° 0.2 mm 3 mps 756 mmHg 82%
04:00 +20°C° 0.1 mm 2 mps 756 mmHg 83%
05:00 +21°C° 0.1 mm 2 mps 756 mmHg 84%
06:00 +23°C° 0.1 mm 2 mps 756 mmHg 85%
07:00 +24°C° 0 mm 2 mps 756 mmHg 80%
08:00 +26°C° 0 mm 2 mps 756 mmHg 74%
09:00 +28°C° 0 mm 3 mps 756 mmHg 69%
10:00 +28°C° 0.4 mm 3 mps 756 mmHg 65%
11:00 +29°C° 0.4 mm 3 mps 756 mmHg 61%
12:00 +30°C° 0.4 mm 4 mps 756 mmHg 57%
13:00 +32°C° 0 mm 4 mps 756 mmHg 55%
14:00 +32°C° 0 mm 4 mps 756 mmHg 53%
15:00 +32°C° 0 mm 4 mps 755 mmHg 50%
16:00 +30°C° 0 mm 3 mps 755 mmHg 57%
17:00 +29°C° 0 mm 3 mps 755 mmHg 64%
18:00 +28°C° 0 mm 3 mps 755 mmHg 71%
19:00 +27°C° 0.1 mm 3 mps 755 mmHg 75%
20:00 +26°C° 0.1 mm 3 mps 755 mmHg 78%
21:00 +24°C° 0.1 mm 3 mps 755 mmHg 82%
22:00 +24°C° 0 mm 3 mps 755 mmHg 84%
23:00 +22°C° 0 mm 3 mps 756 mmHg 87%

Day after tomorrow, 22 June, Tuesday

Time Temperature Precipitation Wind Pressure Humidity
00:00 +22°C° 0 mm 3 mps 756 mmHg 90%
01:00 +21°C° 0 mm 3 mps 756 mmHg 90%
02:00 +21°C° 0 mm 3 mps 756 mmHg 91%
03:00 +21°C° 0 mm 3 mps 756 mmHg 91%
04:00 +22°C° 0 mm 3 mps 756 mmHg 88%
05:00 +24°C° 0 mm 3 mps 756 mmHg 84%
06:00 +25°C° 0 mm 3 mps 756 mmHg 80%
07:00 +26°C° 0 mm 3 mps 756 mmHg 74%
08:00 +28°C° 0 mm 3 mps 756 mmHg 68%
09:00 +29°C° 0 mm 3 mps 756 mmHg 61%
10:00 +30°C° 0 mm 3 mps 756 mmHg 57%
11:00 +31°C° 0 mm 3 mps 756 mmHg 54%
12:00 +33°C° 0 mm 4 mps 756 mmHg 50%
13:00 +33°C° 0 mm 3 mps 756 mmHg 48%
14:00 +34°C° 0 mm 3 mps 756 mmHg 47%
15:00 +34°C° 0 mm 3 mps 756 mmHg 45%
16:00 +33°C° 0 mm 3 mps 756 mmHg 53%
17:00 +31°C° 0 mm 3 mps 755 mmHg 60%
18:00 +29°C° 0 mm 3 mps 755 mmHg 67%
19:00 +28°C° 0 mm 3 mps 755 mmHg 70%
20:00 +27°C° 0 mm 3 mps 755 mmHg 72%
21:00 +25°C° 0 mm 2 mps 755 mmHg 75%
22:00 +25°C° 0 mm 2 mps 755 mmHg 77%
23:00 +24°C° 0 mm 2 mps 755 mmHg 79%

23 June, Wednesday

Time Temperature Precipitation Wind Pressure Humidity
00:00 +24°C° 0 mm 2 mps 755 mmHg 81%
01:00 +23°C° 0 mm 2 mps 755 mmHg 83%
02:00 +23°C° 0 mm 2 mps 755 mmHg 85%
03:00 +21°C° 0 mm 2 mps 755 mmHg 87%
04:00 +23°C° 0 mm 2 mps 756 mmHg 83%
05:00 +24°C° 0 mm 3 mps 756 mmHg 80%
06:00 +25°C° 0 mm 3 mps 756 mmHg 77%
07:00 +27°C° 0 mm 3 mps 756 mmHg 71%
08:00 +28°C° 0 mm 3 mps 756 mmHg 65%
09:00 +29°C° 0 mm 3 mps 756 mmHg 59%
10:00 +30°C° 0 mm 3 mps 756 mmHg 56%
11:00 +31°C° 0 mm 3 mps 756 mmHg 53%
12:00 +33°C° 0 mm 4 mps 756 mmHg 49%
13:00 +33°C° 0 mm 3 mps 756 mmHg 48%
14:00 +33°C° 0 mm 3 mps 756 mmHg 47%
15:00 +34°C° 0 mm 3 mps 756 mmHg 45%
16:00 +33°C° 0 mm 3 mps 755 mmHg 51%
17:00 +31°C° 0 mm 2 mps 755 mmHg 57%
18:00 +30°C° 0 mm 2 mps 755 mmHg 63%
19:00 +28°C° 0.1 mm 2 mps 755 mmHg 68%
20:00 +26°C° 0.1 mm 3 mps 755 mmHg 73%
21:00 +24°C° 0.1 mm 3 mps 755 mmHg 79%
22:00 +22°C° 0.3 mm 3 mps 755 mmHg 82%
23:00 +22°C° 0.3 mm 3 mps 755 mmHg 85%

24 June, Thursday

Time Temperature Precipitation Wind Pressure Humidity
00:00 +21°C° 0.3 mm 3 mps 755 mmHg 89%
01:00 +21°C° 0 mm 2 mps 755 mmHg 88%
02:00 +21°C° 0 mm 2 mps 755 mmHg 88%
03:00 +22°C° 0 mm 1 mps 755 mmHg 87%
04:00 +23°C° 0 mm 1 mps 755 mmHg 85%
05:00 +24°C° 0 mm 1 mps 755 mmHg 82%
06:00 +25°C° 0 mm 2 mps 755 mmHg 80%
07:00 +26°C° 0 mm 2 mps 755 mmHg 74%
08:00 +28°C° 0 mm 2 mps 755 mmHg 68%
09:00 +29°C° 0 mm 2 mps 755 mmHg 63%
10:00 +30°C° 0 mm 2 mps 755 mmHg 59%
11:00 +31°C° 0 mm 2 mps 754 mmHg 55%
12:00 +32°C° 0 mm 2 mps 754 mmHg 51%
13:00 +32°C° 0 mm 2 mps 754 mmHg 49%
14:00 +34°C° 0 mm 2 mps 754 mmHg 48%
15:00 +34°C° 0 mm 2 mps 754 mmHg 46%
16:00 +34°C° 0 mm 2 mps 753 mmHg 51%
17:00 +32°C° 0 mm 2 mps 753 mmHg 56%
18:00 +32°C° 0 mm 1 mps 752 mmHg 61%
19:00 +30°C° 0 mm 1 mps 753 mmHg 66%
20:00 +28°C° 0 mm 1 mps 753 mmHg 71%
21:00 +26°C° 0 mm 1 mps 753 mmHg 76%
22:00 +25°C° 0 mm 1 mps 753 mmHg 76%
23:00 +24°C° 0 mm 1 mps 752 mmHg 77%

25 June, Friday

Time Temperature Precipitation Wind Pressure Humidity
00:00 +24°C° 0 mm 2 mps 752 mmHg 77%
01:00 +24°C° 0 mm 2 mps 752 mmHg 77%
02:00 +23°C° 0 mm 2 mps 752 mmHg 78%
03:00 +22°C° 0 mm 3 mps 752 mmHg 78%
04:00 +24°C° 0 mm 3 mps 752 mmHg 77%
05:00 +25°C° 0 mm 2 mps 752 mmHg 76%
06:00 +26°C° 0 mm 2 mps 752 mmHg 75%
07:00 +27°C° 0 mm 3 mps 752 mmHg 69%
08:00 +29°C° 0 mm 3 mps 752 mmHg 64%
09:00 +30°C° 0 mm 3 mps 752 mmHg 58%
10:00 +31°C° 0 mm 3 mps 752 mmHg 55%
11:00 +33°C° 0 mm 4 mps 752 mmHg 52%
12:00 +34°C° 0 mm 4 mps 751 mmHg 49%
13:00 +34°C° 0 mm 4 mps 751 mmHg 49%
14:00 +35°C° 0 mm 4 mps 751 mmHg 49%
15:00 +35°C° 0 mm 4 mps 751 mmHg 49%
16:00 +34°C° 0 mm 3 mps 750 mmHg 54%
17:00 +33°C° 0 mm 3 mps 750 mmHg 60%
18:00 +31°C° 0 mm 2 mps 750 mmHg 65%
19:00 +29°C° 0 mm 2 mps 750 mmHg 67%
20:00 +28°C° 0 mm 2 mps 750 mmHg 69%
21:00 +26°C° 0 mm 2 mps 750 mmHg 71%
22:00 +26°C° 0 mm 2 mps 750 mmHg 75%
23:00 +25°C° 0 mm 2 mps 749 mmHg 79%
Show more